STARLINK-6314, 56538

Orbit data source: Space-Track

STARLINK-6314, 56538 is a payload satellite owned by SpaceX/Seattle (US) in LEO that was launched on Sun, 14 May 2023 UTC via an FALCON 9 launch vehicle from the Air Force Eastern Test Range (AFETR). Payload-class satellites include a variety of spacecraft equipped with specific instruments for various scientific and technological missions. These include communications satellites like Starlink; space stations such as the ISS; scientific satellites like the Hubble; Earth observation satellites from companies like Planet Labs, Umbra, and HawkEye 360; GPS; miniature CubeSats for education and research; and military/defense satellites.

Loading next visibility...
Identifier
56538, 2023-065AM
Orbit
LEO
Country
Flag of USUS
Related business
Manufacturer
SpaceX/Seattle
Mission
Operational Commercial Communications
Bus & Motor
STARLINK, Unknown motor
Mass
305 kg wet, ~290 kg dry
Launch date (UTC)
2023-05-14 (3 years ago)
Launch vehicle
FALCON 9
Launch site
Air Force Eastern Test Range (AFETR)
Object type
Payload
Rocket body
Debris
Shape & HBR
Box + 1 Pan, 10.1 m
Radar Cross Section
11.087 m², Large (>1 m²)

Expand to show TLE details & history
Last TLE update: 2 days ago

TLE from 2 days ago
0 STARLINK-6314
1 56538U 23065AM  26171.46344711  .00000008  00000-0  98344-5 0  9991
2 56538  43.0045 337.6885 0001764 279.1563  80.9089 15.27576511172482
Epoch: 2026-06-20T11:07Z
TLE epoch observation values (Epoch: 2026-06-20T11:07:21.830Z)
Latitude
-0.00002°
Longitude
-97.83018°
Altitude
482.644 km
Speed
7.626 km/s
True Right ascension
22h 30m 45s
True Declination
0° 00' 00"
Sunlit
Object was in daylight at epoch
Visualization orbit readout
Latitude
Unknown
Longitude
Unknown
Altitude
Unknown
Speed
Unknown
Apparent Right ascension
Unknown
Apparent Declination
Unknown
Sunlit
N/A
Visualization observer readout
Local Sidereal Time
21:24:52
Azimuth
Unknown
Elevation
Unknown
Doppler factor
Unknown
Orbital elements
Apogee altitude
486.215 km
Perigee altitude
483.793 km
Semi-major axis
6,863.141 km
Eccentricity
0.00018
Inclination
43.0045°
RAAN
337.6885°
Arg. of periapsis
279.1563°
True anomaly
80.92886°
Mean anomaly
80.9089°
Eccentric anomaly
80.91888°
Mean motion
3.81732 °/min
Orbital period
94.31 mins
BSTAR
0.0000098344
Loading maneuver chart data...
Computing Atmospheric mass density...
Loading historical data...
Loading historical data...
Loading historical data...
Loading historical data...
Loading historical data...
Loading historical data...
Loading historical data...

Documentation

Showing up to 5 results
|